Weather in Dera Ismail Khan

Pakistan     31°49′15″N   70°54′40″E
temp.,
°C
wind,
m/s
gust,
m/s
humid.,
%
clouds,
%
prec.,
mm/h
press.,
hPa
HPBL,
m
12 may, wed
wed1223:00+30w233299 0.4 1000142
02:00+30ene23320 0.0 99967
05:00+29ene35354 0.0 100092
08:00+32ne55310 0.0 1001751
11:00+37nne54230 0.0 10001828
14:00+40ne54170 0.0 9973464
17:00+40ene441499 0.0 9943420
20:00+30ene9113897 0.6 9991204
13 may, thu
thu1323:00+28e3442100 1.3 1000731
02:00+28ene344480 0.0 999313
05:00+24ne47590 0.5 1001289
08:00+28ne45440 0.3 1003735
11:00+32ne44300 0.3 10031739
14:00+36ne33240 0.0 10002256
17:00+36ene43220 0.0 9982754
20:00+34ne23260 0.0 99954
14 may, fri
fri1423:00+32ne36292 0.0 999141
02:00+29e510410 0.0 1000457
05:00+27ene24460 0.0 1001140
08:00+30ene34370 0.0 1003730
11:00+34ene44270 0.0 10031680
14:00+37e43220 0.0 10002705
17:00+38e44201 0.0 9982947
20:00+34n11240 0.1 99934
15 may, sat
sat1523:00+32sw22283 0.1 100024
02:00+31ene4103178 0.1 999305
05:00+29ne23340 0.1 100041
08:00+32ene67300 0.1 1003777
11:00+35e87270 0.1 10031574
14:00+38e4322100 0.0 10012601
17:00+32sw11103095 0.3 1001478
20:00+28n234598 0.2 1004300
16 may, sun
sun1623:00+28nnw4443100 0.2 1005296
02:00+27wnw2446100 0.0 1004213
05:00+26n3546100 0.1 1005123
08:00+30nne443497 0.5 1007781
11:00+34nne3226100 0.5 10061674
14:00+37e222151 0.0 10032320
17:00+37wnw642192 0.0 10022075
20:00+30w101533100 0.1 1005445